TJS-4

Last updated on Thu Jul 03 2025 00:02:48 GMT+0000 (Coordinated Universal Time)

1 44637U 19070A 25183.58317492 -.00000163 00000+0 00000+0 0 9998 2 44637 0.0293 127.7983 0003588 277.8483 168.6504 1.00274234 20960
UTC large
Height (km)
Speed (km/s)
/
Latitude / Longitude
Inclination (degrees)
Orbital Period (minutes)
Azimuth
Elevation
Range (km)
Doppler Factor

Next 0 passes for location: London (51.5072 / 0.1276)

Sorry there are no passes over London.